| time (UTC) | temp F | wind direction | speed knots | gust knots | rain 1hr in | rain 24hr in | rain mn in | humidity % | barometer mb |
| 20260906220019 | 89 | 272 | 3.5 | 13.0 | 0.00 | 0.00 | 0.00 | 12 | 1005.4 |
| 20260906214515 | 89 | 195 | 7.0 | 18.2 | 0.00 | 0.00 | 0.00 | 12 | 1005.8 |
| 20260906213014 | 89 | 211 | 5.2 | 14.8 | 0.00 | 0.00 | 0.00 | 12 | 1005.7 |
| 20260906211512 | 89 | 214 | 7.0 | 16.5 | 0.00 | 0.00 | 0.00 | 13 | 1005.9 |
| 20260906210014 | 89 | 252 | 11.3 | 20.9 | 0.00 | 0.00 | 0.00 | 12 | 1006.2 |
| 20260906204509 | 88 | 229 | 4.3 | 17.4 | 0.00 | 0.00 | 0.00 | 13 | 1006.4 |
| 20260906203025 | 88 | 289 | 7.8 | 16.5 | 0.00 | 0.00 | 0.00 | 13 | 1006.6 |
| 20260906201510 | 89 | 263 | 9.6 | 16.5 | 0.00 | 0.00 | 0.00 | 13 | 1006.6 |
| 20260906200006 | 88 | 250 | 9.6 | 17.4 | 0.00 | 0.00 | 0.00 | 13 | 1006.6 |
| 20260906194505 | 88 | 298 | 6.1 | 15.6 | 0.00 | 0.00 | 0.00 | 13 | 1006.7 |
| 20260906193006 | 89 | 254 | 7.8 | 14.8 | 0.00 | 0.00 | 0.00 | 13 | 1006.8 |
| 20260906191611 | 88 | 228 | 3.5 | 13.0 | 0.00 | 0.00 | 0.00 | 13 | 1007.0 |
| 20260906190100 | 88 | 201 | 9.6 | 21.7 | 0.00 | 0.00 | 0.00 | 13 | 1007.2 |
| 20260906184600 | 88 | 224 | 4.3 | 18.2 | 0.00 | 0.00 | 0.00 | 13 | 1007.4 |
| 20260906183103 | 88 | 243 | 5.2 | 17.4 | 0.00 | 0.00 | 0.00 | 13 | 1007.7 |
| 20260906181556 | 87 | 158 | 5.2 | 16.5 | 0.00 | 0.00 | 0.00 | 14 | 1007.8 |
| 20260906180104 | 86 | 169 | 0.9 | 7.8 | 0.00 | 0.00 | 0.00 | 17 | 1008.1 |
| 20260906174550 | 85 | 193 | 4.3 | 13.0 | 0.00 | 0.00 | 0.00 | 18 | 1008.5 |
| 20260906173044 | 85 | 140 | 4.3 | 9.6 | 0.00 | 0.00 | 0.00 | 18 | 1008.7 |
| 20260906171544 | 85 | 138 | 2.6 | 15.6 | 0.00 | 0.00 | 0.00 | 19 | 1008.9 |
| 20260906170033 | 83 | 158 | 4.3 | 9.6 | 0.00 | 0.00 | 0.00 | 22 | 1009.0 |
| 20260906164529 | 81 | 127 | 5.2 | 7.8 | 0.00 | 0.00 | 0.00 | 25 | 1009.1 |
| 20260906163024 | 79 | 124 | 5.2 | 7.8 | 0.00 | 0.00 | 0.00 | 30 | 1009.3 |
| 20260906161535 | 76 | 143 | 2.6 | 7.8 | 0.00 | 0.00 | 0.00 | 34 | 1009.6 |
| 20260906160015 | 74 | 131 | 4.3 | 8.7 | 0.00 | 0.00 | 0.00 | 34 | 1009.8 |
| 20260906154511 | 75 | 149 | 4.3 | 7.0 | 0.00 | 0.00 | 0.00 | 34 | 1009.8 |
| 20260906153007 | 75 | 134 | 0.9 | 3.5 | 0.00 | 0.00 | 0.00 | 33 | 1009.8 |
| 20260906151504 | 74 | 128 | 0.0 | 1.7 | 0.00 | 0.00 | 0.00 | 34 | 1009.9 |
| 20260906150107 | 72 | 4 | 0.0 | 0.0 | 0.00 | 0.00 | 0.00 | 35 | 1010.0 |
| 20260906144554 | 70 | 4 | 0.0 | 0.0 | 0.00 | 0.00 | 0.00 | 41 | 1010.1 |
| 20260906143050 | 68 | 4 | 0.0 | 0.0 | 0.00 | 0.00 | 0.00 | 42 | 1010.3 |
| 20260906141559 | 66 | 4 | 0.0 | 0.0 | 0.00 | 0.00 | 0.00 | 45 | 1010.4 |
| 20260906140040 | 65 | 4 | 0.0 | 0.0 | 0.00 | 0.00 | 0.00 | 47 | 1010.4 |
| 20260906134538 | 64 | 4 | 0.0 | 0.0 | 0.00 | 0.00 | 0.00 | 44 | 1010.5 |
| 20260906133041 | 63 | 4 | 0.0 | 0.0 | 0.00 | 0.00 | 0.00 | 45 | 1010.5 |
| 20260906131530 | 62 | 4 | 0.0 | 1.7 | 0.00 | 0.00 | 0.00 | 44 | 1010.4 |
| 20260906130028 | 62 | 4 | 1.7 | 5.2 | 0.00 | 0.00 | 0.00 | 46 | 1010.3 |
| 20260906124526 | 60 | 354 | 0.0 | 0.9 | 0.00 | 0.00 | 0.00 | 45 | 1010.2 |
| 20260906123029 | 61 | 354 | 0.0 | 3.5 | 0.00 | 0.00 | 0.00 | 46 | 1010.3 |
| 20260906121533 | 61 | 325 | 0.0 | 3.5 | 0.00 | 0.00 | 0.00 | 46 | 1010.4 |
| 20260906120023 | 60 | 332 | 0.0 | 2.6 | 0.00 | 0.00 | 0.00 | 46 | 1010.3 |
| 20260906114530 | 60 | 343 | 0.0 | 0.0 | 0.00 | 0.00 | 0.00 | 46 | 1010.4 |
| 20260906113022 | 60 | 316 | 0.0 | 7.0 | 0.00 | 0.00 | 0.00 | 46 | 1010.3 |
| 20260906111522 | 60 | 342 | 0.0 | 2.6 | 0.00 | 0.00 | 0.00 | 48 | 1010.3 |
| 20260906110019 | 60 | 342 | 0.0 | 0.9 | 0.00 | 0.00 | 0.00 | 47 | 1010.4 |
| 20260906104519 | 60 | 342 | 0.0 | 1.7 | 0.00 | 0.00 | 0.00 | 47 | 1010.5 |
| 20260906103019 | 61 | 341 | 0.0 | 0.0 | 0.00 | 0.00 | 0.00 | 46 | 1010.5 |
| 20260906101518 | 62 | 341 | 0.0 | 2.6 | 0.00 | 0.00 | 0.00 | 45 | 1010.5 |
| 20260906100028 | 63 | 316 | 0.0 | 1.7 | 0.00 | 0.00 | 0.00 | 42 | 1010.5 |
| 20260906094517 | 63 | 316 | 0.0 | 0.0 | 0.00 | 0.00 | 0.00 | 44 | 1010.4 |
| 20260906093016 | 63 | 315 | 0.9 | 3.5 | 0.00 | 0.00 | 0.00 | 43 | 1010.3 |
| 20260906091517 | 62 | 319 | 0.0 | 1.7 | 0.00 | 0.00 | 0.00 | 45 | 1010.4 |
| 20260906090015 | 61 | 319 | 0.0 | 0.0 | 0.00 | 0.00 | 0.00 | 48 | 1010.3 |
| 20260906084517 | 61 | 319 | 0.0 | 0.9 | 0.00 | 0.00 | 0.00 | 47 | 1010.5 |
| 20260906083014 | 60 | 319 | 0.0 | 1.7 | 0.00 | 0.00 | 0.00 | 48 | 1010.4 |
| 20260906081513 | 61 | 319 | 0.0 | 0.9 | 0.00 | 0.00 | 0.00 | 47 | 1010.6 |
| 20260906080016 | 61 | 319 | 0.9 | 1.7 | 0.00 | 0.00 | 0.00 | 45 | 1010.6 |
| 20260906074508 | 62 | 319 | 0.9 | 3.5 | 0.00 | 0.00 | 0.00 | 44 | 1010.6 |
| 20260906073008 | 63 | 324 | 0.9 | 2.6 | 0.00 | 0.00 | 0.00 | 44 | 1010.8 |
| 20260906071506 | 62 | 324 | 0.0 | 3.5 | 0.00 | 0.00 | 0.00 | 47 | 1010.5 |
| 20260906070005 | 61 | 324 | 1.7 | 2.6 | 0.00 | 0.00 | 0.00 | 45 | 1010.4 |
| 20260906064504 | 65 | 324 | 0.0 | 2.6 | 0.00 | 0.00 | 0.00 | 42 | 1010.4 |
| 20260906063059 | 65 | 300 | 0.9 | 3.5 | 0.00 | 0.00 | 0.00 | 40 | 1010.6 |
| 20260906061558 | 64 | 301 | 0.9 | 3.5 | 0.00 | 0.00 | 0.00 | 42 | 1010.5 |
| 20260906060125 | 64 | 299 | 0.9 | 6.1 | 0.00 | 0.00 | 0.00 | 42 | 1010.5 |
| 20260906054607 | 65 | 330 | 1.7 | 3.5 | 0.00 | 0.00 | 0.00 | 40 | 1010.5 |
| 20260906053053 | 66 | 330 | 0.0 | 3.5 | 0.00 | 0.00 | 0.00 | 40 | 1010.7 |
| 20260906051553 | 66 | 300 | 0.0 | 0.0 | 0.00 | 0.00 | 0.00 | 40 | 1010.7 |
| 20260906050052 | 66 | 297 | 0.9 | 3.5 | 0.00 | 0.00 | 0.00 | 39 | 1010.8 |
| 20260906044552 | 67 | 301 | 0.0 | 3.5 | 0.00 | 0.00 | 0.00 | 37 | 1010.9 |
| 20260906043052 | 67 | 303 | 0.0 | 4.3 | 0.00 | 0.00 | 0.00 | 38 | 1010.8 |
| 20260906041551 | 66 | 339 | 1.7 | 7.0 | 0.00 | 0.00 | 0.00 | 40 | 1010.8 |
| 20260906040050 | 66 | 336 | 0.0 | 2.6 | 0.00 | 0.00 | 0.00 | 41 | 1010.9 |
| 20260906034600 | 66 | 359 | 0.0 | 2.6 | 0.00 | 0.00 | 0.00 | 40 | 1010.8 |
| 20260906033049 | 68 | 8 | 0.9 | 3.5 | 0.00 | 0.00 | 0.00 | 37 | 1010.7 |
| 20260906031549 | 69 | 8 | 0.9 | 2.6 | 0.00 | 0.00 | 0.00 | 35 | 1010.7 |
| 20260906030046 | 70 | 354 | 2.6 | 3.5 | 0.00 | 0.00 | 0.00 | 34 | 1010.5 |
| 20260906024547 | 71 | 8 | 2.6 | 7.0 | 0.00 | 0.00 | 0.00 | 34 | 1010.2 |
| 20260906023043 | 73 | 37 | 1.7 | 4.3 | 0.00 | 0.00 | 0.00 | 33 | 1010.0 |
| 20260906021545 | 73 | 62 | 3.5 | 9.6 | 0.00 | 0.00 | 0.00 | 33 | 1009.8 |
| 20260906020043 | 74 | 50 | 3.5 | 9.6 | 0.00 | 0.00 | 0.00 | 32 | 1009.6 |
| 20260906014548 | 74 | 39 | 2.6 | 9.6 | 0.00 | 0.00 | 0.00 | 32 | 1009.4 |
| 20260906013042 | 75 | 67 | 3.5 | 10.4 | 0.00 | 0.00 | 0.00 | 31 | 1009.3 |
| 20260906011541 | 75 | 83 | 2.6 | 7.8 | 0.00 | 0.00 | 0.00 | 30 | 1009.2 |
| 20260906010053 | 76 | 65 | 3.5 | 7.8 | 0.00 | 0.00 | 0.00 | 29 | 1009.1 |
| 20260906004552 | 78 | 84 | 3.5 | 8.7 | 0.00 | 0.00 | 0.00 | 28 | 1009.1 |
| 20260906003040 | 78 | 54 | 3.5 | 10.4 | 0.00 | 0.00 | 0.00 | 28 | 1008.9 |
| 20260906001555 | 79 | 65 | 5.2 | 10.4 | 0.00 | 0.00 | 0.00 | 28 | 1008.7 |
| 20260906000039 | 78 | 86 | 3.5 | 10.4 | 0.00 | 0.00 | 0.00 | 28 | 1008.5 |
| 20260905234539 | 80 | 86 | 5.2 | 11.3 | 0.00 | 0.00 | 0.00 | 27 | 1008.6 |
| 20260905233038 | 80 | 10 | 5.2 | 12.2 | 0.00 | 0.00 | 0.00 | 27 | 1008.5 |
| 20260905231537 | 81 | 66 | 6.1 | 11.3 | 0.00 | 0.00 | 0.00 | 25 | 1008.4 |
| 20260905230039 | 81 | 104 | 3.5 | 9.6 | 0.00 | 0.00 | 0.00 | 25 | 1008.4 |
| 20260905224536 | 81 | 63 | 3.5 | 10.4 | 0.00 | 0.00 | 0.00 | 25 | 1008.4 |
| 20260905223048 | 81 | 81 | 4.3 | 10.4 | 0.00 | 0.00 | 0.00 | 25 | 1008.4 |
| 20260905221538 | 80 | 76 | 3.5 | 8.7 | 0.00 | 0.00 | 0.00 | 26 | 1008.6 |